When you browse on this site, cookies collect data to enhance your experience and personalize the content and advertising you see.
Visit our Privacy Policy to learn more. By continuing to use the site, you agree to this use of cookies and data.
  • In Deutschland
  • Länderverzeichnis
  • Für 7 Tage
  • Wassertemperatur
  • Satellitenkarten
  • Wetterkarte
  • Widgets
  • user-avatar
    Anmelden

    Stündliche Wetter Abstatt

    Heute, 21 Februar, Donnerstag

    Zeit Temperatur Niederschläge Wind Luftdruck Luftfeuchtigkeit
    00:00 +6°C° 0 mm 1 m/S 746 mmHg 86%
    01:00 +6°C° 0 mm 1 m/S 746 mmHg 86%
    02:00 +6°C° 0 mm 1 m/S 746 mmHg 87%
    03:00 +5°C° 0 mm 1 m/S 746 mmHg 88%
    04:00 +5°C° 0 mm 1 m/S 746 mmHg 89%
    05:00 +5°C° 0 mm 1 m/S 746 mmHg 90%
    06:00 +5°C° 0 mm 1 m/S 746 mmHg 90%
    07:00 +5°C° 0 mm 1 m/S 746 mmHg 90%
    08:00 +6°C° 0 mm 1 m/S 746 mmHg 85%
    09:00 +8°C° 0 mm 1 m/S 747 mmHg 81%
    10:00 +9°C° 0 mm 1 m/S 747 mmHg 76%
    11:00 +9°C° 0 mm 2 m/S 747 mmHg 72%
    12:00 +12°C° 0 mm 2 m/S 747 mmHg 68%
    13:00 +12°C° 0 mm 3 m/S 747 mmHg 64%
    14:00 +12°C° 0 mm 3 m/S 747 mmHg 64%
    15:00 +12°C° 0 mm 3 m/S 746 mmHg 65%
    16:00 +12°C° 0 mm 3 m/S 746 mmHg 65%
    17:00 +12°C° 0 mm 2 m/S 747 mmHg 71%
    18:00 +9°C° 0 mm 2 m/S 747 mmHg 77%
    19:00 +9°C° 0 mm 1 m/S 747 mmHg 84%
    20:00 +9°C° 0 mm 1 m/S 748 mmHg 85%
    21:00 +9°C° 0 mm 1 m/S 748 mmHg 87%
    22:00 +8°C° 0 mm 1 m/S 748 mmHg 88%
    23:00 +7°C° 0 mm 2 m/S 749 mmHg 90%

    Morgen, 22 Februar, Freitag

    Zeit Temperatur Niederschläge Wind Luftdruck Luftfeuchtigkeit
    00:00 +7°C° 0 mm 2 m/S 749 mmHg 91%
    01:00 +7°C° 0 mm 2 m/S 749 mmHg 92%
    02:00 +7°C° 0.1 mm 2 m/S 749 mmHg 92%
    03:00 +7°C° 0.1 mm 2 m/S 749 mmHg 92%
    04:00 +7°C° 0.1 mm 2 m/S 749 mmHg 92%
    05:00 +7°C° 0 mm 2 m/S 750 mmHg 92%
    06:00 +7°C° 0 mm 2 m/S 750 mmHg 93%
    07:00 +8°C° 0 mm 1 m/S 750 mmHg 93%
    08:00 +8°C° 0 mm 1 m/S 750 mmHg 90%
    09:00 +9°C° 0 mm 1 m/S 751 mmHg 87%
    10:00 +10°C° 0 mm 1 m/S 751 mmHg 84%
    11:00 +10°C° 0 mm 1 m/S 751 mmHg 82%
    12:00 +10°C° 0 mm 2 m/S 751 mmHg 80%
    13:00 +10°C° 0 mm 2 m/S 751 mmHg 78%
    14:00 +10°C° 0 mm 2 m/S 751 mmHg 75%
    15:00 +12°C° 0 mm 2 m/S 751 mmHg 72%
    16:00 +12°C° 0 mm 2 m/S 751 mmHg 70%
    17:00 +10°C° 0 mm 2 m/S 752 mmHg 74%
    18:00 +9°C° 0 mm 2 m/S 752 mmHg 79%
    19:00 +8°C° 0 mm 2 m/S 752 mmHg 83%
    20:00 +7°C° 0 mm 2 m/S 752 mmHg 84%
    21:00 +5°C° 0 mm 3 m/S 753 mmHg 86%
    22:00 +5°C° 0 mm 3 m/S 753 mmHg 87%
    23:00 +4°C° 0 mm 3 m/S 753 mmHg 87%

    übermorgen, 23 Februar, Samstag

    Zeit Temperatur Niederschläge Wind Luftdruck Luftfeuchtigkeit
    00:00 +4°C° 0 mm 3 m/S 753 mmHg 88%
    01:00 +3°C° 0 mm 3 m/S 753 mmHg 89%
    02:00 +3°C° 0 mm 3 m/S 753 mmHg 88%
    03:00 +2°C° 0 mm 3 m/S 753 mmHg 87%
    04:00 +2°C° 0 mm 3 m/S 753 mmHg 86%
    05:00 +1°C° 0 mm 3 m/S 753 mmHg 87%
    06:00 +2°C° 0 mm 2 m/S 753 mmHg 87%
    07:00 +1°C° 0 mm 2 m/S 753 mmHg 88%
    08:00 +1°C° 0 mm 3 m/S 753 mmHg 81%
    09:00 +2°C° 0 mm 3 m/S 753 mmHg 75%
    10:00 +4°C° 0 mm 4 m/S 753 mmHg 69%
    11:00 +5°C° 0 mm 4 m/S 753 mmHg 62%
    12:00 +6°C° 0 mm 4 m/S 753 mmHg 54%
    13:00 +7°C° 0 mm 5 m/S 753 mmHg 47%
    14:00 +8°C° 0 mm 4 m/S 753 mmHg 45%
    15:00 +8°C° 0 mm 4 m/S 752 mmHg 44%
    16:00 +8°C° 0 mm 4 m/S 752 mmHg 42%
    17:00 +6°C° 0 mm 4 m/S 752 mmHg 46%
    18:00 +5°C° 0 mm 3 m/S 752 mmHg 50%
    19:00 +3°C° 0 mm 3 m/S 752 mmHg 54%
    20:00 +3°C° 0 mm 3 m/S 752 mmHg 54%
    21:00 +2°C° 0 mm 3 m/S 752 mmHg 53%
    22:00 +2°C° 0 mm 3 m/S 753 mmHg 53%
    23:00 +1°C° 0 mm 3 m/S 753 mmHg 52%

    24 Februar, Sonntag

    Zeit Temperatur Niederschläge Wind Luftdruck Luftfeuchtigkeit
    00:00 +1°C° 0 mm 3 m/S 753 mmHg 52%
    01:00 +1°C° 0 mm 3 m/S 753 mmHg 52%
    02:00 +1°C° 0 mm 2 m/S 752 mmHg 52%
    03:00 +1°C° 0 mm 2 m/S 752 mmHg 52%
    04:00 +1°C° 0 mm 2 m/S 752 mmHg 53%
    05:00 +1°C° 0 mm 2 m/S 752 mmHg 52%
    06:00 +1°C° 0 mm 2 m/S 752 mmHg 51%
    07:00 -1°C° 0 mm 2 m/S 752 mmHg 51%
    08:00 +2°C° 0 mm 2 m/S 753 mmHg 46%
    09:00 +3°C° 0 mm 2 m/S 753 mmHg 41%
    10:00 +4°C° 0 mm 3 m/S 753 mmHg 35%
    11:00 +7°C° 0 mm 3 m/S 753 mmHg 34%
    12:00 +8°C° 0 mm 3 m/S 753 mmHg 33%
    13:00 +10°C° 0 mm 3 m/S 753 mmHg 32%
    14:00 +10°C° 0 mm 3 m/S 752 mmHg 35%
    15:00 +10°C° 0 mm 3 m/S 752 mmHg 38%
    16:00 +10°C° 0 mm 3 m/S 752 mmHg 41%
    17:00 +9°C° 0 mm 3 m/S 752 mmHg 47%
    18:00 +7°C° 0 mm 2 m/S 752 mmHg 52%
    19:00 +6°C° 0 mm 2 m/S 753 mmHg 58%
    20:00 +5°C° 0 mm 2 m/S 753 mmHg 59%
    21:00 +5°C° 0 mm 2 m/S 753 mmHg 60%
    22:00 +4°C° 0 mm 2 m/S 753 mmHg 61%
    23:00 +4°C° 0 mm 2 m/S 753 mmHg 61%

    25 Februar, Montag

    Zeit Temperatur Niederschläge Wind Luftdruck Luftfeuchtigkeit
    00:00 +4°C° 0 mm 2 m/S 753 mmHg 62%
    01:00 +4°C° 0 mm 1 m/S 753 mmHg 63%
    02:00 +4°C° 0 mm 1 m/S 753 mmHg 64%
    03:00 +3°C° 0 mm 2 m/S 753 mmHg 66%
    04:00 +3°C° 0 mm 2 m/S 753 mmHg 68%
    05:00 +3°C° 0 mm 2 m/S 753 mmHg 69%
    06:00 +3°C° 0 mm 2 m/S 753 mmHg 71%
    07:00 +3°C° 0 mm 2 m/S 753 mmHg 73%
    08:00 +4°C° 0 mm 2 m/S 753 mmHg 71%
    09:00 +6°C° 0 mm 2 m/S 753 mmHg 68%
    10:00 +7°C° 0 mm 2 m/S 753 mmHg 66%
    11:00 +9°C° 0 mm 2 m/S 753 mmHg 63%
    12:00 +10°C° 0 mm 3 m/S 752 mmHg 60%
    13:00 +12°C° 0 mm 4 m/S 752 mmHg 57%
    14:00 +12°C° 0 mm 4 m/S 752 mmHg 57%
    15:00 +13°C° 0 mm 4 m/S 751 mmHg 57%
    16:00 +13°C° 0 mm 4 m/S 751 mmHg 56%
    17:00 +11°C° 0 mm 4 m/S 751 mmHg 63%
    18:00 +10°C° 0 mm 3 m/S 751 mmHg 69%
    19:00 +8°C° 0 mm 3 m/S 751 mmHg 75%
    20:00 +7°C° 0 mm 3 m/S 751 mmHg 76%
    21:00 +7°C° 0 mm 3 m/S 751 mmHg 76%
    22:00 +5°C° 0 mm 3 m/S 751 mmHg 77%
    23:00 +5°C° 0 mm 3 m/S 751 mmHg 78%

    26 Februar, Dienstag

    Zeit Temperatur Niederschläge Wind Luftdruck Luftfeuchtigkeit
    00:00 +4°C° 0 mm 3 m/S 751 mmHg 80%
    01:00 +5°C° 0 mm 2 m/S 751 mmHg 81%
    02:00 +4°C° 0 mm 2 m/S 751 mmHg 83%
    03:00 +4°C° 0 mm 2 m/S 751 mmHg 84%
    04:00 +3°C° 0 mm 2 m/S 750 mmHg 85%
    05:00 +3°C° 0 mm 2 m/S 750 mmHg 86%
    06:00 +3°C° 0 mm 2 m/S 750 mmHg 87%
    07:00 +2°C° 0 mm 2 m/S 750 mmHg 88%
    08:00 +4°C° 0 mm 2 m/S 750 mmHg 81%
    09:00 +5°C° 0 mm 2 m/S 751 mmHg 75%
    10:00 +7°C° 0 mm 2 m/S 751 mmHg 69%
    11:00 +9°C° 0 mm 2 m/S 751 mmHg 64%
    12:00 +10°C° 0 mm 2 m/S 750 mmHg 58%
    13:00 +13°C° 0 mm 2 m/S 750 mmHg 53%
    14:00 +13°C° 0 mm 2 m/S 750 mmHg 53%
    15:00 +14°C° 0 mm 2 m/S 750 mmHg 53%
    16:00 +14°C° 0 mm 2 m/S 749 mmHg 53%
    17:00 +12°C° 0 mm 2 m/S 750 mmHg 59%
    18:00 +11°C° 0 mm 1 m/S 750 mmHg 66%
    19:00 +9°C° 0 mm 1 m/S 750 mmHg 72%
    20:00 +9°C° 0 mm 1 m/S 750 mmHg 73%
    21:00 +8°C° 0 mm 1 m/S 750 mmHg 74%
    22:00 +8°C° 0 mm 1 m/S 749 mmHg 75%
    23:00 +7°C° 0 mm 1 m/S 749 mmHg 76%
    Mehr zeigen